• In Russia
  • List of Countries
  • For 7 days
  • Water Temperature
  • Satellite Maps
  • Weather Map
  • Weather Widgets
  • user-avatar
    Login

    Hourly Weather Varadero

    Today, 23 October, Tuesday

    Time Temperature Precipitation Wind Pressure Humidity
    00:00 +27°C° 0 mm 4 mps 761 mmHg 88%
    01:00 +26°C° 0 mm 4 mps 761 mmHg 88%
    02:00 +26°C° 0 mm 3 mps 761 mmHg 89%
    03:00 +26°C° 0 mm 3 mps 761 mmHg 89%
    04:00 +26°C° 0 mm 3 mps 761 mmHg 90%
    05:00 +26°C° 0.4 mm 3 mps 761 mmHg 90%
    06:00 +26°C° 0.4 mm 3 mps 761 mmHg 90%
    07:00 +26°C° 0.4 mm 3 mps 761 mmHg 90%
    08:00 +28°C° 0 mm 3 mps 762 mmHg 83%
    09:00 +30°C° 0 mm 3 mps 762 mmHg 75%
    10:00 +31°C° 0 mm 3 mps 762 mmHg 68%
    11:00 +33°C° 0 mm 3 mps 762 mmHg 65%
    12:00 +34°C° 0 mm 3 mps 761 mmHg 61%
    13:00 +34°C° 0 mm 2 mps 761 mmHg 58%
    14:00 +34°C° 0.2 mm 3 mps 760 mmHg 61%
    15:00 +33°C° 0.2 mm 3 mps 760 mmHg 65%
    16:00 +31°C° 0.2 mm 3 mps 759 mmHg 68%
    17:00 +30°C° 0.7 mm 3 mps 760 mmHg 74%
    18:00 +28°C° 0.7 mm 3 mps 760 mmHg 81%
    19:00 +27°C° 0.7 mm 3 mps 760 mmHg 88%
    20:00 +27°C° 0 mm 3 mps 760 mmHg 88%
    21:00 +27°C° 0 mm 3 mps 761 mmHg 89%
    22:00 +26°C° 0 mm 3 mps 761 mmHg 90%
    23:00 +26°C° 0 mm 3 mps 761 mmHg 90%

    Tomorrow, 24 October, Wednesday

    Time Temperature Precipitation Wind Pressure Humidity
    00:00 +26°C° 0 mm 3 mps 760 mmHg 91%
    01:00 +26°C° 0 mm 2 mps 760 mmHg 92%
    02:00 +26°C° 0 mm 2 mps 760 mmHg 92%
    03:00 +26°C° 0 mm 2 mps 760 mmHg 93%
    04:00 +25°C° 0 mm 1 mps 760 mmHg 94%
    05:00 +25°C° 0 mm 1 mps 760 mmHg 94%
    06:00 +26°C° 0 mm 1 mps 760 mmHg 94%
    07:00 +26°C° 0 mm 1 mps 760 mmHg 94%
    08:00 +28°C° 0 mm 1 mps 760 mmHg 85%
    09:00 +29°C° 0 mm 1 mps 761 mmHg 76%
    10:00 +31°C° 0 mm 1 mps 761 mmHg 67%
    11:00 +32°C° 0 mm 1 mps 761 mmHg 64%
    12:00 +34°C° 0 mm 2 mps 760 mmHg 61%
    13:00 +34°C° 0 mm 2 mps 760 mmHg 57%
    14:00 +34°C° 0.1 mm 2 mps 759 mmHg 61%
    15:00 +33°C° 0.1 mm 3 mps 759 mmHg 64%
    16:00 +32°C° 0.1 mm 4 mps 758 mmHg 67%
    17:00 +30°C° 0.1 mm 4 mps 758 mmHg 72%
    18:00 +29°C° 0.1 mm 3 mps 759 mmHg 77%
    19:00 +28°C° 0.1 mm 3 mps 759 mmHg 83%
    20:00 +27°C° 0 mm 3 mps 759 mmHg 84%
    21:00 +27°C° 0 mm 3 mps 760 mmHg 85%
    22:00 +27°C° 0 mm 3 mps 760 mmHg 86%
    23:00 +27°C° 0 mm 3 mps 760 mmHg 87%

    Day after tomorrow, 25 October, Thursday

    Time Temperature Precipitation Wind Pressure Humidity
    00:00 +27°C° 0 mm 2 mps 759 mmHg 88%
    01:00 +26°C° 0 mm 2 mps 759 mmHg 88%
    02:00 +26°C° 0 mm 2 mps 759 mmHg 89%
    03:00 +26°C° 0 mm 2 mps 759 mmHg 90%
    04:00 +26°C° 0 mm 1 mps 758 mmHg 91%
    05:00 +26°C° 0 mm 1 mps 758 mmHg 91%
    06:00 +26°C° 0 mm 1 mps 758 mmHg 91%
    07:00 +26°C° 0 mm 1 mps 759 mmHg 91%
    08:00 +28°C° 0.1 mm 1 mps 759 mmHg 83%
    09:00 +30°C° 0.1 mm 1 mps 759 mmHg 74%
    10:00 +31°C° 0.1 mm 1 mps 760 mmHg 66%
    11:00 +32°C° 0 mm 1 mps 759 mmHg 62%
    12:00 +34°C° 0 mm 1 mps 758 mmHg 58%
    13:00 +35°C° 0 mm 1 mps 758 mmHg 53%
    14:00 +34°C° 0.1 mm 1 mps 757 mmHg 57%
    15:00 +34°C° 0.1 mm 2 mps 757 mmHg 61%
    16:00 +32°C° 0.1 mm 2 mps 757 mmHg 65%
    17:00 +30°C° 0.2 mm 2 mps 757 mmHg 72%
    18:00 +29°C° 0.2 mm 2 mps 757 mmHg 79%
    19:00 +27°C° 0.2 mm 2 mps 757 mmHg 86%
    20:00 +27°C° 0 mm 2 mps 758 mmHg 86%
    21:00 +27°C° 0 mm 2 mps 758 mmHg 87%
    22:00 +26°C° 0 mm 1 mps 758 mmHg 88%
    23:00 +26°C° 0 mm 1 mps 758 mmHg 89%

    26 October, Friday

    Time Temperature Precipitation Wind Pressure Humidity
    00:00 +26°C° 0 mm 1 mps 758 mmHg 90%
    01:00 +25°C° 0 mm 1 mps 757 mmHg 91%
    02:00 +25°C° 0 mm 1 mps 757 mmHg 92%
    03:00 +25°C° 0 mm 1 mps 757 mmHg 92%
    04:00 +25°C° 0 mm 2 mps 757 mmHg 92%
    05:00 +25°C° 0 mm 2 mps 757 mmHg 91%
    06:00 +25°C° 0 mm 2 mps 757 mmHg 90%
    07:00 +25°C° 0 mm 2 mps 758 mmHg 89%
    08:00 +27°C° 0 mm 2 mps 758 mmHg 81%
    09:00 +29°C° 0 mm 2 mps 758 mmHg 73%
    10:00 +31°C° 0 mm 2 mps 758 mmHg 65%
    11:00 +33°C° 0 mm 3 mps 758 mmHg 61%
    12:00 +34°C° 0 mm 3 mps 757 mmHg 58%
    13:00 +35°C° 0 mm 3 mps 757 mmHg 54%
    14:00 +34°C° 0.2 mm 3 mps 756 mmHg 57%
    15:00 +34°C° 0.2 mm 3 mps 756 mmHg 61%
    16:00 +33°C° 0.2 mm 4 mps 756 mmHg 64%
    17:00 +31°C° 0.2 mm 3 mps 756 mmHg 70%
    18:00 +29°C° 0.2 mm 3 mps 756 mmHg 77%
    19:00 +27°C° 0.2 mm 3 mps 757 mmHg 84%
    20:00 +27°C° 0 mm 3 mps 757 mmHg 86%
    21:00 +27°C° 0 mm 3 mps 757 mmHg 88%
    22:00 +26°C° 0 mm 3 mps 757 mmHg 90%
    23:00 +26°C° 0 mm 3 mps 757 mmHg 91%

    27 October, Saturday

    Time Temperature Precipitation Wind Pressure Humidity
    00:00 +26°C° 0 mm 3 mps 757 mmHg 92%
    01:00 +26°C° 0 mm 3 mps 757 mmHg 93%
    02:00 +25°C° 0 mm 3 mps 757 mmHg 93%
    03:00 +25°C° 0 mm 3 mps 756 mmHg 94%
    04:00 +25°C° 0 mm 3 mps 756 mmHg 94%
    05:00 +25°C° 0 mm 3 mps 757 mmHg 94%
    06:00 +25°C° 0 mm 3 mps 757 mmHg 94%
    07:00 +25°C° 0 mm 3 mps 757 mmHg 94%
    08:00 +27°C° 0 mm 4 mps 758 mmHg 84%
    09:00 +29°C° 0 mm 4 mps 758 mmHg 73%
    10:00 +32°C° 0 mm 5 mps 759 mmHg 63%
    11:00 +32°C° 0.1 mm 5 mps 758 mmHg 59%
    12:00 +33°C° 0.1 mm 5 mps 758 mmHg 55%
    13:00 +34°C° 0.1 mm 5 mps 758 mmHg 50%
    14:00 +33°C° 0.4 mm 5 mps 757 mmHg 57%
    15:00 +32°C° 0.4 mm 5 mps 757 mmHg 63%
    16:00 +30°C° 0.4 mm 5 mps 757 mmHg 69%
    17:00 +29°C° 0.6 mm 4 mps 758 mmHg 75%
    18:00 +27°C° 0.6 mm 4 mps 758 mmHg 82%
    19:00 +26°C° 0.6 mm 4 mps 759 mmHg 88%
    20:00 +26°C° 0.1 mm 4 mps 759 mmHg 88%
    21:00 +26°C° 0.1 mm 3 mps 759 mmHg 87%
    22:00 +26°C° 0.1 mm 3 mps 759 mmHg 87%
    23:00 +25°C° 0 mm 3 mps 759 mmHg 86%

    28 October, Sunday

    Time Temperature Precipitation Wind Pressure Humidity
    00:00 +25°C° 0 mm 3 mps 759 mmHg 85%
    01:00 +25°C° 0 mm 4 mps 759 mmHg 85%
    02:00 +25°C° 0 mm 4 mps 759 mmHg 85%
    03:00 +25°C° 0 mm 4 mps 759 mmHg 85%
    04:00 +25°C° 0 mm 4 mps 759 mmHg 85%
    05:00 +25°C° 0.1 mm 4 mps 760 mmHg 85%
    06:00 +25°C° 0.1 mm 4 mps 760 mmHg 86%
    07:00 +25°C° 0.1 mm 4 mps 761 mmHg 86%
    08:00 +26°C° 0.1 mm 4 mps 761 mmHg 81%
    09:00 +27°C° 0.1 mm 5 mps 762 mmHg 75%
    10:00 +28°C° 0.1 mm 5 mps 762 mmHg 70%
    11:00 +29°C° 0.1 mm 5 mps 762 mmHg 68%
    12:00 +29°C° 0.1 mm 5 mps 762 mmHg 67%
    13:00 +29°C° 0.1 mm 5 mps 761 mmHg 65%
    14:00 +29°C° 0 mm 5 mps 761 mmHg 67%
    15:00 +28°C° 0 mm 6 mps 761 mmHg 68%
    16:00 +28°C° 0 mm 6 mps 761 mmHg 69%
    17:00 +27°C° 0 mm 5 mps 761 mmHg 71%
    18:00 +26°C° 0 mm 5 mps 762 mmHg 72%
    19:00 +25°C° 0 mm 4 mps 762 mmHg 74%
    20:00 +23°C° 0 mm 4 mps 762 mmHg 72%
    21:00 +23°C° 0 mm 4 mps 763 mmHg 69%
    22:00 +23°C° 0 mm 4 mps 763 mmHg 67%
    23:00 +23°C° 0 mm 4 mps 763 mmHg 65%

    29 October, Monday

    Time Temperature Precipitation Wind Pressure Humidity
    00:00 +23°C° 0 mm 4 mps 762 mmHg 64%
    01:00 +22°C° 0 mm 4 mps 762 mmHg 62%
    02:00 +22°C° 0 mm 4 mps 762 mmHg 63%
    03:00 +22°C° 0 mm 4 mps 762 mmHg 63%
    04:00 +22°C° 0 mm 4 mps 762 mmHg 64%
    05:00 +23°C° 0 mm 4 mps 762 mmHg 66%
    06:00 +23°C° 0 mm 4 mps 762 mmHg 68%
    07:00 +23°C° 0 mm 4 mps 763 mmHg 70%
    08:00 +26°C° 0 mm 4 mps 763 mmHg 66%
    09:00 +27°C° 0 mm 4 mps 763 mmHg 61%
    10:00 +29°C° 0 mm 5 mps 763 mmHg 56%
    11:00 +30°C° 0 mm 4 mps 763 mmHg 54%
    12:00 +30°C° 0 mm 4 mps 762 mmHg 53%
    13:00 +32°C° 0 mm 4 mps 762 mmHg 51%
    14:00 +30°C° 0 mm 4 mps 762 mmHg 53%
    15:00 +30°C° 0 mm 4 mps 761 mmHg 54%
    16:00 +29°C° 0 mm 4 mps 761 mmHg 56%
    17:00 +28°C° 0 mm 4 mps 761 mmHg 60%
    18:00 +26°C° 0 mm 4 mps 762 mmHg 64%
    19:00 +25°C° 0 mm 4 mps 762 mmHg 67%
    Show more